Date String (YYYY-MM-DD hh:mm:ss) UTC,Instrument flags,absolute air pressure of the measurement (hPa),sample flow rate (lpm),inlet stack bypass flow (lpm),air temperature of the measurement (°C),ambient temperature measured by the external sensor (°C),aerosol sample conditioner tube jacket temperature (°C),OPC LED temperature (°C),internal box temperature (°C),relative humidity of the measurement (%),span deviation,mass concentration of particles derived from Lorenz-Mie calculation of OPC scattering (μg/m³),mass concentration of particles derived from Lorenz-Mie calculation of OPC scattering (μg/m³),mass concentration of particles derived from Lorenz-Mie calculation of OPC scattering (μg/m³)
DateTimeUTC,F1_M11,P_M11,Q1_M11,Q2_M11,T1_M11,T2_M11,T3_M11,T4_M11,T5_M11,U1_M11,ZSPAN_M11,X0_M11,X2_M11,X1_M11
2023-05-31 11:00:00,SystemResetWarning,0828.6,4.99,000.00,028.0,026.6,000.0,036.3,029.7,19.8,0000.0,0010.48,0003.78,0002.74
2023-05-31 11:01:00,SystemResetWarning,0828.6,5.00,000.00,028.0,026.6,000.0,036.3,029.7,20.0,0000.0,0010.68,0003.82,0002.75
2023-05-31 11:02:00,SystemResetWarning,0828.5,4.99,000.00,028.0,026.6,000.0,036.3,029.7,20.4,0000.0,0010.65,0003.83,0002.74
2023-05-31 11:03:00,SystemResetWarning,0828.6,5.00,000.00,028.1,026.6,000.0,036.3,029.7,21.8,0000.0,0009.91,0003.85,0002.75
2023-05-31 11:04:00,SystemResetWarning,0828.5,5.01,000.00,028.1,026.6,000.0,036.3,029.7,21.8,0000.0,0010.61,0003.89,0002.75
2023-05-31 11:05:00,SystemResetWarning,0828.5,5.00,000.00,028.1,026.5,000.0,036.3,029.7,21.5,0000.0,0012.01,0003.91,0002.74
2023-05-31 11:06:00,SystemResetWarning,0828.5,5.00,000.00,028.1,026.5,000.0,036.3,029.7,21.3,0000.0,0012.51,0003.98,0002.75
2023-05-31 11:07:00,SystemResetWarning,0828.5,5.00,000.00,028.1,026.5,000.0,036.4,029.7,21.2,0000.0,0012.46,0003.99,0002.75
2023-05-31 11:08:00,SystemResetWarning,0828.5,5.00,000.00,028.1,026.5,000.0,036.4,029.7,21.1,0000.0,0012.80,0004.09,0002.76
2023-05-31 11:09:00,SystemResetWarning,0828.5,4.99,000.00,028.1,026.5,000.0,036.4,029.7,21.1,0000.0,0012.46,0004.16,0002.78
2023-05-31 11:10:00,SystemResetWarning,0828.5,5.00,000.00,028.1,026.6,000.0,036.4,029.8,21.3,0000.0,0013.72,0004.19,0002.79
2023-05-31 11:11:00,SystemResetWarning,0828.5,5.00,000.00,028.1,026.6,000.0,036.4,029.8,21.4,0000.0,0013.73,0004.21,0002.82
2023-05-31 11:12:00,SystemResetWarning,0828.6,5.00,000.00,028.1,026.6,000.0,036.4,029.8,21.3,0000.0,0013.87,0004.20,0002.80
2023-05-31 11:13:00,SystemResetWarning,0828.6,5.01,000.00,028.1,026.6,000.0,036.4,029.8,21.4,0000.0,0015.03,0004.22,0002.81
2023-05-31 11:14:00,SystemResetWarning,0828.6,5.01,000.00,028.1,026.6,000.0,036.4,029.8,21.5,0000.0,0015.30,0004.20,0002.81
2023-05-31 11:15:00,SystemResetWarning,0828.7,4.99,000.00,028.2,026.6,000.0,036.4,029.8,21.8,0000.0,0015.17,0004.17,0002.81
2023-05-31 11:16:00,SystemResetWarning,0828.6,4.99,000.00,028.2,026.6,000.0,036.4,029.8,21.9,0000.0,0014.13,0004.19,0002.80
2023-05-31 11:17:00,SystemResetWarning,0828.6,5.01,000.00,028.2,026.6,000.0,036.4,029.8,22.0,0000.0,0013.64,0004.17,0002.80
2023-05-31 11:18:00,SystemResetWarning,0828.5,5.01,000.00,028.2,026.6,000.0,036.4,029.8,22.1,0000.0,0013.49,0004.15,0002.79
2023-05-31 11:19:00,SystemResetWarning,0828.6,4.99,000.00,028.2,026.6,000.0,036.4,029.8,21.9,0000.0,0012.99,0004.11,0002.77
2023-05-31 11:20:00,SystemResetWarning,0828.6,4.98,000.00,028.2,026.7,000.0,036.5,029.8,21.9,0000.0,0012.81,0004.08,0002.77
2023-05-31 11:21:00,SystemResetWarning,0828.6,5.00,000.00,028.2,026.7,000.0,036.5,029.8,22.1,0000.0,0011.83,0004.05,0002.77
2023-05-31 11:22:00,SystemResetWarning,0828.5,5.01,000.00,028.2,026.7,000.0,036.5,029.8,22.2,0000.0,0012.59,0004.01,0002.75
2023-05-31 11:23:00,SystemResetWarning,0828.4,5.01,000.00,028.2,026.7,000.0,036.5,029.9,22.3,0000.0,0012.52,0004.01,0002.75
2023-05-31 11:24:00,SystemResetWarning,0828.4,4.99,000.00,028.2,026.7,000.0,036.5,029.9,22.4,0000.0,0012.32,0004.02,0002.76
2023-05-31 11:25:00,SystemResetWarning,0828.5,4.99,000.00,028.2,026.7,000.0,036.5,029.9,22.3,0000.0,0013.14,0004.01,0002.75
2023-05-31 11:26:00,SystemResetWarning,0828.5,4.99,000.00,028.2,026.7,000.0,036.5,029.9,22.3,0000.0,0013.77,0004.08,0002.76
2023-05-31 11:27:00,SystemResetWarning,0828.5,4.99,000.00,028.2,026.7,000.0,036.5,029.9,22.3,0000.0,0013.81,0004.09,0002.78
2023-05-31 11:28:00,SystemResetWarning,0828.6,5.00,000.00,028.2,026.7,000.0,036.5,029.9,21.8,0000.0,0013.87,0004.10,0002.77
2023-05-31 11:29:00,SystemResetWarning,0828.6,4.99,000.00,028.2,026.7,000.0,036.5,029.9,22.3,0000.0,0015.18,0004.18,0002.79
2023-05-31 11:30:00,SystemResetWarning,0828.6,5.00,000.00,028.2,026.6,000.0,036.5,029.9,22.6,0000.0,0015.38,0004.20,0002.80
2023-05-31 11:31:00,SystemResetWarning,0828.6,5.00,000.00,028.2,026.6,000.0,036.5,029.9,22.8,0000.0,0015.32,0004.24,0002.81
2023-05-31 11:32:00,SystemResetWarning,0828.6,5.00,000.00,028.2,026.6,000.0,036.5,029.8,23.0,0000.0,0015.51,0004.26,0002.82
2023-05-31 11:33:00,SystemResetWarning,0828.6,5.00,000.00,028.2,026.6,000.0,036.5,029.8,23.4,0000.0,0014.89,0004.29,0002.82
2023-05-31 11:34:00,SystemResetWarning,0828.6,5.00,000.00,028.2,026.5,000.0,036.5,029.8,23.6,0000.0,0014.63,0004.36,0002.85
2023-05-31 11:35:00,SystemResetWarning,0828.7,5.00,000.00,028.2,026.5,000.0,036.5,029.8,23.7,0000.0,0015.11,0004.37,0002.86
2023-05-31 11:36:00,SystemResetWarning,0828.7,5.00,000.00,028.2,026.5,000.0,036.5,029.8,23.8,0000.0,0014.36,0004.37,0002.89
2023-05-31 11:37:00,SystemResetWarning,0828.7,5.00,000.00,028.2,026.4,000.0,036.5,029.8,23.8,0000.0,0013.41,0004.37,0002.92
2023-05-31 11:38:00,SystemResetWarning,0828.7,5.00,000.00,028.2,026.4,000.0,036.5,029.8,23.9,0000.0,0013.68,0004.37,0002.95
2023-05-31 11:39:00,SystemResetWarning,0828.7,5.00,000.00,028.2,026.4,000.0,036.5,029.7,23.9,0000.0,0013.62,0004.34,0002.97
2023-05-31 11:40:00,SystemResetWarning,0828.7,5.01,000.00,028.1,026.4,000.0,036.5,029.7,24.0,0000.0,0012.68,0004.31,0003.00
2023-05-31 11:41:00,SystemResetWarning,0828.6,5.00,000.00,028.1,026.4,000.0,036.5,029.8,23.9,0000.0,0013.52,0004.32,0003.03
2023-05-31 11:42:00,SystemResetWarning,0828.6,5.01,000.00,028.1,026.4,000.0,036.5,029.7,23.9,0000.0,0013.46,0004.31,0003.05
2023-05-31 11:43:00,SystemResetWarning,0828.6,5.00,000.00,028.1,026.4,000.0,036.5,029.7,23.8,0000.0,0012.88,0004.31,0003.08
2023-05-31 11:44:00,SystemResetWarning,0828.6,5.01,000.00,028.1,026.3,000.0,036.5,029.7,23.9,0000.0,0013.50,0004.35,0003.10
2023-05-31 11:45:00,SystemResetWarning,0828.6,5.00,000.00,028.1,026.3,000.0,036.5,029.7,24.0,0000.0,0013.81,0004.33,0003.10
2023-05-31 11:46:00,SystemResetWarning,0828.6,5.00,000.00,028.1,026.3,000.0,036.5,029.7,24.2,0000.0,0013.45,0004.33,0003.11
2023-05-31 11:47:00,SystemResetWarning,0828.6,5.00,000.00,028.1,026.3,000.0,036.5,029.7,24.3,0000.0,0013.39,0004.36,0003.12
2023-05-31 11:48:00,SystemResetWarning,0828.7,5.00,000.00,028.1,026.3,000.0,036.5,029.7,24.3,0000.0,0013.41,0004.36,0003.12
2023-05-31 11:49:00,SystemResetWarning,0828.7,5.00,000.00,028.1,026.3,000.0,036.5,029.7,24.3,0000.0,0013.05,0004.39,0003.13
2023-05-31 11:50:00,SystemResetWarning,0828.6,5.00,000.00,028.1,026.3,000.0,036.5,029.7,24.3,0000.0,0013.47,0004.49,0003.15
2023-05-31 11:51:00,SystemResetWarning,0828.6,5.00,000.00,028.0,026.3,000.0,036.4,029.6,24.3,0000.0,0013.27,0004.54,0003.16
2023-05-31 11:52:00,SystemResetWarning,0828.6,4.99,000.00,028.0,026.3,000.0,036.4,029.6,24.3,0000.0,0012.52,0004.57,0003.17
2023-05-31 11:53:00,SystemResetWarning,0828.6,4.99,000.00,028.0,026.3,000.0,036.4,029.6,24.3,0000.0,0012.47,0004.56,0003.18
2023-05-31 11:54:00,SystemResetWarning,0828.6,5.00,000.00,028.0,026.3,000.0,036.4,029.6,24.4,0000.0,0012.67,0004.61,0003.19
2023-05-31 11:55:00,SystemResetWarning,0828.6,4.99,000.00,028.0,026.3,000.0,036.4,029.6,24.4,0000.0,0011.90,0004.61,0003.20
2023-05-31 11:56:00,SystemResetWarning,0828.6,5.01,000.00,028.0,026.3,000.0,036.4,029.6,24.4,0000.0,0011.33,0004.57,0003.21
2023-05-31 11:57:00,SystemResetWarning,0828.6,5.00,000.00,028.0,026.3,000.0,036.4,029.6,24.4,0000.0,0010.63,0004.56,0003.21
2023-05-31 11:58:00,SystemResetWarning,0828.6,4.99,000.00,028.0,026.4,000.0,036.4,029.6,24.5,0000.0,0010.96,0004.60,0003.22
2023-05-31 11:59:00,SystemResetWarning,0828.5,4.99,000.00,028.0,026.4,000.0,036.4,029.7,24.6,0000.0,0011.62,0004.62,0003.22
